When you browse on this site, cookies collect data to enhance your experience and personalize the content and advertising you see.
Visit our Privacy Policy to learn more. By continuing to use the site, you agree to this use of cookies and data.
  • In United Kingdom
  • List of Countries
  • For 7 days
  • Water Temperature
  • Satellite Maps
  • Weather Map
  • Weather Widgets
  • user-avatar
    Login

    Hourly Weather Hrazdan

    Today, 18 December, Tuesday

    Time Temperature Precipitation Wind Pressure Humidity
    00:00 -1°C° 0.5 mm 1 mps 611 mmHg 90%
    01:00 -1°C° 0.3 mm 1 mps 611 mmHg 90%
    02:00 -1°C° 0.3 mm 1 mps 611 mmHg 90%
    03:00 -2°C° 0 mm 1 mps 611 mmHg 90%
    04:00 -2°C° 0.2 mm 1 mps 611 mmHg 90%
    05:00 -2°C° 0.2 mm 1 mps 611 mmHg 90%
    06:00 -3°C° 0.2 mm 0 mps 611 mmHg 90%
    07:00 -2°C° 0.1 mm 0 mps 611 mmHg 88%
    08:00 -1°C° 0.1 mm 1 mps 612 mmHg 87%
    09:00 0°C° 0 mm 1 mps 612 mmHg 85%
    10:00 +1°C° 0.1 mm 1 mps 612 mmHg 84%
    11:00 +1°C° 0.1 mm 1 mps 612 mmHg 82%
    12:00 +1°C° 0.1 mm 2 mps 612 mmHg 81%
    13:00 +1°C° 0.1 mm 2 mps 612 mmHg 81%
    14:00 +2°C° 0.1 mm 1 mps 612 mmHg 81%
    15:00 +2°C° 0.1 mm 1 mps 612 mmHg 81%
    16:00 +1°C° 0.1 mm 1 mps 612 mmHg 83%
    17:00 0°C° 0.1 mm 1 mps 613 mmHg 85%
    18:00 0°C° 0.1 mm 1 mps 613 mmHg 86%
    19:00 -1°C° 0.1 mm 1 mps 613 mmHg 86%
    20:00 -1°C° 0.1 mm 1 mps 613 mmHg 85%
    21:00 -1°C° 0.1 mm 1 mps 613 mmHg 85%
    22:00 -1°C° 0.1 mm 1 mps 613 mmHg 85%
    23:00 -1°C° 0.1 mm 1 mps 613 mmHg 85%

    Tomorrow, 19 December, Wednesday

    Time Temperature Precipitation Wind Pressure Humidity
    00:00 -1°C° 0.1 mm 1 mps 614 mmHg 85%
    01:00 -2°C° 0 mm 1 mps 614 mmHg 85%
    02:00 -2°C° 0 mm 1 mps 614 mmHg 85%
    03:00 -2°C° 0 mm 1 mps 613 mmHg 85%
    04:00 -2°C° 0 mm 1 mps 614 mmHg 85%
    05:00 -2°C° 0 mm 1 mps 614 mmHg 84%
    06:00 -2°C° 0 mm 1 mps 614 mmHg 84%
    07:00 -2°C° 0 mm 1 mps 614 mmHg 83%
    08:00 -1°C° 0 mm 1 mps 614 mmHg 82%
    09:00 0°C° 0 mm 1 mps 615 mmHg 81%
    10:00 -1°C° 0 mm 2 mps 615 mmHg 79%
    11:00 -1°C° 0 mm 2 mps 615 mmHg 78%
    12:00 +1°C° 0 mm 2 mps 615 mmHg 77%
    13:00 +1°C° 0 mm 2 mps 614 mmHg 77%
    14:00 +1°C° 0 mm 2 mps 614 mmHg 78%
    15:00 +1°C° 0 mm 2 mps 614 mmHg 78%
    16:00 -1°C° 0 mm 2 mps 614 mmHg 80%
    17:00 0°C° 0 mm 1 mps 614 mmHg 82%
    18:00 -1°C° 0 mm 1 mps 613 mmHg 84%
    19:00 -1°C° 0 mm 1 mps 613 mmHg 84%
    20:00 -1°C° 0 mm 1 mps 613 mmHg 83%
    21:00 -1°C° 0 mm 1 mps 613 mmHg 83%
    22:00 -1°C° 0 mm 1 mps 613 mmHg 83%
    23:00 -1°C° 0 mm 1 mps 613 mmHg 83%

    Day after tomorrow, 20 December, Thursday

    Time Temperature Precipitation Wind Pressure Humidity
    00:00 -1°C° 0 mm 1 mps 613 mmHg 83%
    01:00 -2°C° 0 mm 1 mps 613 mmHg 84%
    02:00 -2°C° 0 mm 1 mps 613 mmHg 84%
    03:00 -2°C° 0 mm 1 mps 613 mmHg 85%
    04:00 -2°C° 0 mm 1 mps 613 mmHg 85%
    05:00 -2°C° 0 mm 1 mps 612 mmHg 85%
    06:00 -2°C° 0 mm 1 mps 612 mmHg 85%
    07:00 -1°C° 0 mm 1 mps 612 mmHg 84%
    08:00 -1°C° 0 mm 1 mps 613 mmHg 83%
    09:00 0°C° 0 mm 1 mps 613 mmHg 82%
    10:00 +1°C° 0.1 mm 1 mps 613 mmHg 81%
    11:00 +2°C° 0.1 mm 1 mps 613 mmHg 80%
    12:00 +2°C° 0.1 mm 1 mps 613 mmHg 79%
    13:00 +2°C° 0.1 mm 1 mps 613 mmHg 80%
    14:00 +2°C° 0.1 mm 1 mps 612 mmHg 80%
    15:00 +2°C° 0.1 mm 1 mps 612 mmHg 81%
    16:00 +1°C° 0.1 mm 1 mps 612 mmHg 84%
    17:00 -1°C° 0.1 mm 0 mps 611 mmHg 86%
    18:00 -2°C° 0.1 mm 0 mps 611 mmHg 89%
    19:00 -2°C° 0.1 mm 0 mps 611 mmHg 89%
    20:00 -2°C° 0.1 mm 0 mps 612 mmHg 89%
    21:00 -2°C° 0.1 mm 0 mps 612 mmHg 88%
    22:00 -1°C° 0.2 mm 1 mps 612 mmHg 89%
    23:00 -1°C° 0.2 mm 1 mps 612 mmHg 89%

    21 December, Friday

    Time Temperature Precipitation Wind Pressure Humidity
    00:00 -1°C° 0.2 mm 1 mps 612 mmHg 89%
    01:00 -1°C° 0.2 mm 1 mps 612 mmHg 89%
    02:00 -1°C° 0.2 mm 1 mps 612 mmHg 89%
    03:00 -1°C° 0.2 mm 1 mps 612 mmHg 90%
    04:00 -1°C° 0.2 mm 1 mps 612 mmHg 89%
    05:00 -1°C° 0.2 mm 1 mps 612 mmHg 89%
    06:00 -1°C° 0.2 mm 1 mps 612 mmHg 89%
    07:00 -1°C° 0.1 mm 1 mps 613 mmHg 87%
    08:00 -1°C° 0.1 mm 1 mps 613 mmHg 85%
    09:00 0°C° 0.1 mm 1 mps 614 mmHg 83%
    10:00 +1°C° 0.1 mm 1 mps 614 mmHg 81%
    11:00 +1°C° 0.1 mm 1 mps 614 mmHg 80%
    12:00 +2°C° 0.1 mm 1 mps 614 mmHg 78%
    13:00 +2°C° 0 mm 1 mps 613 mmHg 77%
    14:00 +2°C° 0 mm 1 mps 613 mmHg 77%
    15:00 +2°C° 0 mm 1 mps 613 mmHg 76%
    16:00 +1°C° 0 mm 1 mps 613 mmHg 79%
    17:00 0°C° 0 mm 1 mps 613 mmHg 81%
    18:00 -1°C° 0 mm 1 mps 613 mmHg 84%
    19:00 -1°C° 0 mm 1 mps 613 mmHg 83%
    20:00 -1°C° 0 mm 1 mps 613 mmHg 83%
    21:00 -2°C° 0 mm 1 mps 613 mmHg 83%
    22:00 -2°C° 0 mm 1 mps 613 mmHg 83%
    23:00 -3°C° 0 mm 0 mps 613 mmHg 83%

    22 December, Saturday

    Time Temperature Precipitation Wind Pressure Humidity
    00:00 -4°C° 0 mm 0 mps 613 mmHg 83%
    01:00 -3°C° 0 mm 1 mps 612 mmHg 83%
    02:00 -3°C° 0 mm 1 mps 612 mmHg 83%
    03:00 -3°C° 0 mm 1 mps 612 mmHg 82%
    04:00 -3°C° 0 mm 1 mps 612 mmHg 82%
    05:00 -4°C° 0 mm 1 mps 612 mmHg 81%
    06:00 -4°C° 0 mm 1 mps 611 mmHg 80%
    07:00 -3°C° 0 mm 1 mps 612 mmHg 79%
    08:00 -2°C° 0 mm 1 mps 612 mmHg 77%
    09:00 -2°C° 0 mm 1 mps 612 mmHg 76%
    10:00 -1°C° 0 mm 1 mps 612 mmHg 74%
    11:00 0°C° 0 mm 1 mps 612 mmHg 73%
    12:00 -1°C° 0 mm 2 mps 612 mmHg 71%
    13:00 -1°C° 0 mm 2 mps 611 mmHg 72%
    14:00 +1°C° 0 mm 1 mps 611 mmHg 72%
    15:00 +1°C° 0 mm 1 mps 611 mmHg 73%
    16:00 0°C° 0 mm 1 mps 610 mmHg 75%
    17:00 -1°C° 0 mm 1 mps 610 mmHg 77%
    18:00 -2°C° 0 mm 1 mps 610 mmHg 79%
    19:00 -2°C° 0.1 mm 1 mps 610 mmHg 79%
    20:00 -2°C° 0.1 mm 1 mps 610 mmHg 78%
    21:00 -2°C° 0.1 mm 1 mps 611 mmHg 78%
    22:00 -2°C° 0.1 mm 1 mps 611 mmHg 79%
    23:00 -2°C° 0.1 mm 1 mps 611 mmHg 80%

    23 December, Sunday

    Time Temperature Precipitation Wind Pressure Humidity
    00:00 -2°C° 0.1 mm 1 mps 611 mmHg 80%
    01:00 -2°C° 0.1 mm 1 mps 611 mmHg 81%
    02:00 -3°C° 0.1 mm 1 mps 611 mmHg 81%
    03:00 -3°C° 0.1 mm 1 mps 611 mmHg 81%
    04:00 -3°C° 0 mm 1 mps 610 mmHg 81%
    05:00 -4°C° 0 mm 1 mps 610 mmHg 81%
    06:00 -4°C° 0 mm 1 mps 610 mmHg 81%
    07:00 -4°C° 0 mm 1 mps 611 mmHg 79%
    08:00 -5°C° 0 mm 2 mps 611 mmHg 77%
    09:00 -4°C° 0 mm 2 mps 612 mmHg 76%
    10:00 -4°C° 0 mm 2 mps 612 mmHg 73%
    11:00 -3°C° 0 mm 2 mps 612 mmHg 70%
    12:00 -2°C° 0 mm 2 mps 612 mmHg 67%
    13:00 -2°C° 0 mm 2 mps 612 mmHg 67%
    14:00 -2°C° 0 mm 2 mps 611 mmHg 67%
    15:00 -2°C° 0 mm 2 mps 611 mmHg 67%
    16:00 -3°C° 0 mm 2 mps 611 mmHg 69%
    17:00 -5°C° 0 mm 2 mps 611 mmHg 72%
    18:00 -6°C° 0 mm 2 mps 611 mmHg 74%
    19:00 -6°C° 0 mm 2 mps 611 mmHg 74%
    20:00 -6°C° 0 mm 2 mps 611 mmHg 73%
    21:00 -6°C° 0 mm 2 mps 611 mmHg 72%
    22:00 -6°C° 0 mm 2 mps 611 mmHg 72%
    23:00 -6°C° 0 mm 2 mps 611 mmHg 72%
    Show more